472P/NEAT-LINEAR (2024)

Japanese version
Home page
Updated on February 10, 2025

---------------------------------------------------------------------

* Profile

Designation 472P/2023 RL75
Recovery Date September 9, 2023
Magnitude 21.7 mag
Recoverer E. Schwab (Calar Alto)

* Pictures

* Orbital Elements

Epoch 2024 Oct. 17.0 TT = JDT 2460600.5
T 2024 July 15.13410 TT                                 Rudenko
q   3.3892648            (2000.0)            P               Q
n   0.04507353     Peri.  218.91284     +0.42962332     -0.89925694
a   7.8196680      Node   205.95371     +0.86833113     +0.43640001
e   0.5665718      Incl.   10.82897     +0.24784037     +0.02986616
P  21.9
>From 565 observations 2002 Sept. 15-2024 Sept. 1, mean residual 0".7.

* Finding Charts

* Magnitudes Graph

        m1 = -7.5 + 5 log d + 39 log r(t - 117)

---------------------------------------------------------------------

The orbital elements are published on M.P.E.C. 2024-R10.
The charts are made with StellaNavigator Ver.11 (AstroArts).
The magnitudes graphs are made with Comet for Windows.

---------------------------------------------------------------------

Copyright(C) Seiichi Yoshida (comet@aerith.net). All rights reserved.